| time (UTC) | temp F | wind direction | speed knots | gust knots | rain 1hr in | rain 24hr in | rain mn in | humidity % | barometer mb |
| 20260507195351 | 76 | 296 | 3.5 | 7.8 | 0.00 | 0.00 | 0.00 | 72 | 1014.9 |
| 20260507194339 | 75 | 324 | 3.5 | 9.6 | 0.00 | 0.00 | 0.00 | 72 | 1015.0 |
| 20260507193339 | 75 | 15 | 4.3 | 10.4 | 0.00 | 0.00 | 0.00 | 72 | 1014.9 |
| 20260507192325 | 74 | 317 | 2.6 | 10.4 | 0.00 | 0.00 | 0.00 | 73 | 1015.1 |
| 20260507191332 | 73 | 52 | 3.5 | 8.7 | 0.00 | 0.00 | 0.00 | 73 | 1015.4 |
| 20260507190356 | 73 | 5 | 4.3 | 10.4 | 0.00 | 0.00 | 0.00 | 74 | 1015.8 |
| 20260507185324 | 72 | 18 | 3.5 | 9.6 | 0.00 | 0.01 | 0.00 | 75 | 1015.9 |
| 20260507184350 | 72 | 13 | 3.5 | 9.6 | 0.00 | 0.01 | 0.00 | 77 | 1016.1 |
| 20260507183333 | 71 | 314 | 5.2 | 10.4 | 0.00 | 0.01 | 0.00 | 76 | 1016.4 |
| 20260507182401 | 70 | 350 | 4.3 | 13.9 | 0.00 | 0.01 | 0.00 | 77 | 1016.5 |
| 20260507181329 | 70 | 345 | 5.2 | 11.3 | 0.00 | 0.01 | 0.00 | 77 | 1016.4 |
| 20260507180353 | 70 | 335 | 4.3 | 11.3 | 0.00 | 0.01 | 0.00 | 77 | 1016.6 |
| 20260507175356 | 70 | 323 | 5.2 | 11.3 | 0.00 | 0.02 | 0.00 | 76 | 1016.5 |
| 20260507174342 | 70 | 333 | 4.3 | 11.3 | 0.00 | 0.02 | 0.00 | 77 | 1016.7 |
| 20260507173327 | 69 | 25 | 3.5 | 13.0 | 0.00 | 0.02 | 0.00 | 77 | 1016.7 |
| 20260507172354 | 69 | 350 | 2.6 | 10.4 | 0.00 | 0.02 | 0.00 | 78 | 1017.0 |
| 20260507171358 | 69 | 7 | 4.3 | 10.4 | 0.00 | 0.02 | 0.00 | 78 | 1017.0 |
| 20260507170340 | 69 | 345 | 4.3 | 11.3 | 0.00 | 0.02 | 0.00 | 78 | 1017.2 |
| 20260507165327 | 68 | 4 | 4.3 | 8.7 | 0.00 | 0.03 | 0.00 | 80 | 1017.2 |
| 20260507164338 | 67 | 350 | 4.3 | 12.2 | 0.00 | 0.03 | 0.00 | 80 | 1017.2 |
| 20260507163322 | 68 | 306 | 4.3 | 13.0 | 0.00 | 0.03 | 0.00 | 79 | 1017.3 |
| 20260507162329 | 67 | 9 | 7.0 | 13.0 | 0.00 | 0.03 | 0.00 | 79 | 1017.1 |
| 20260507161335 | 67 | 359 | 0.9 | 12.2 | 0.00 | 0.03 | 0.00 | 81 | 1017.0 |
| 20260507160359 | 66 | 31 | 2.6 | 9.6 | 0.00 | 0.03 | 0.00 | 81 | 1017.0 |
| 20260507155344 | 66 | 33 | 2.6 | 11.3 | 0.00 | 0.03 | 0.00 | 81 | 1016.8 |
| 20260507154329 | 66 | 36 | 4.3 | 12.2 | 0.00 | 0.03 | 0.00 | 81 | 1016.6 |
| 20260507153334 | 65 | 340 | 5.2 | 11.3 | 0.00 | 0.03 | 0.00 | 82 | 1016.6 |
| 20260507152326 | 65 | 300 | 4.3 | 10.4 | 0.00 | 0.03 | 0.00 | 83 | 1016.7 |
| 20260507151335 | 64 | 16 | 3.5 | 9.6 | 0.00 | 0.03 | 0.00 | 83 | 1016.8 |
| 20260507150341 | 64 | 340 | 2.6 | 9.6 | 0.00 | 0.03 | 0.00 | 84 | 1017.0 |
| 20260507145329 | 64 | 340 | 4.3 | 11.3 | 0.00 | 0.03 | 0.00 | 84 | 1017.2 |
| 20260507144335 | 64 | 47 | 3.5 | 11.3 | 0.00 | 0.03 | 0.00 | 85 | 1016.9 |
| 20260507143339 | 64 | 345 | 2.6 | 11.3 | 0.00 | 0.03 | 0.00 | 87 | 1017.0 |
| 20260507142325 | 63 | 355 | 4.3 | 10.4 | 0.00 | 0.03 | 0.00 | 87 | 1016.6 |
| 20260507141336 | 63 | 350 | 5.2 | 15.6 | 0.00 | 0.03 | 0.00 | 87 | 1016.3 |
| 20260507140342 | 64 | 39 | 5.2 | 13.9 | 0.00 | 0.03 | 0.00 | 87 | 1016.1 |
| 20260507135328 | 64 | 15 | 7.0 | 17.4 | 0.00 | 0.03 | 0.00 | 88 | 1015.8 |
| 20260507134335 | 63 | 310 | 4.3 | 13.0 | 0.00 | 0.03 | 0.00 | 89 | 1015.7 |
| 20260507133339 | 63 | 327 | 5.2 | 13.0 | 0.00 | 0.03 | 0.00 | 89 | 1016.2 |
| 20260507132326 | 63 | 49 | 4.3 | 10.4 | 0.00 | 0.03 | 0.00 | 89 | 1016.3 |
| 20260507131336 | 64 | 79 | 5.2 | 12.2 | 0.00 | 0.03 | 0.00 | 89 | 1016.4 |
| 20260507130339 | 64 | 350 | 6.1 | 15.6 | 0.00 | 0.03 | 0.00 | 89 | 1016.4 |
| 20260507125327 | 64 | 298 | 4.3 | 10.4 | 0.00 | 0.03 | 0.00 | 89 | 1016.7 |
| 20260507124334 | 65 | 350 | 2.6 | 13.9 | 0.00 | 0.03 | 0.00 | 89 | 1016.7 |
| 20260507123338 | 65 | 345 | 4.3 | 9.6 | 0.00 | 0.03 | 0.00 | 89 | 1016.5 |
| 20260507122323 | 65 | 321 | 2.6 | 11.3 | 0.00 | 0.03 | 0.00 | 89 | 1016.5 |
| 20260507121331 | 65 | 345 | 3.5 | 13.0 | 0.00 | 0.03 | 0.00 | 88 | 1016.0 |
| 20260507120335 | 65 | 323 | 3.5 | 10.4 | 0.00 | 0.03 | 0.00 | 88 | 1015.6 |
| 20260507115326 | 65 | 329 | 3.5 | 8.7 | 0.00 | 0.03 | 0.00 | 88 | 1015.4 |
| 20260507114334 | 65 | 335 | 4.3 | 11.3 | 0.00 | 0.03 | 0.00 | 88 | 1014.9 |
| 20260507113338 | 65 | 340 | 4.3 | 12.2 | 0.00 | 0.03 | 0.00 | 88 | 1014.7 |
| 20260507112325 | 65 | 340 | 5.2 | 10.4 | 0.00 | 0.03 | 0.00 | 87 | 1015.2 |
| 20260507111331 | 65 | 356 | 2.6 | 8.7 | 0.00 | 0.03 | 0.00 | 87 | 1015.1 |
| 20260507110355 | 65 | 360 | 3.5 | 9.6 | 0.00 | 0.03 | 0.00 | 87 | 1015.0 |
| 20260507105324 | 65 | 340 | 2.6 | 9.6 | 0.00 | 0.03 | 0.00 | 87 | 1014.6 |
| 20260507104350 | 65 | 323 | 1.7 | 5.2 | 0.00 | 0.03 | 0.00 | 87 | 1014.6 |
| 20260507103332 | 65 | 327 | 2.6 | 7.8 | 0.00 | 0.03 | 0.00 | 86 | 1014.3 |
| 20260507102338 | 65 | 354 | 1.7 | 8.7 | 0.00 | 0.03 | 0.00 | 86 | 1014.7 |
| 20260507101324 | 65 | 345 | 1.7 | 9.6 | 0.00 | 0.03 | 0.00 | 86 | 1014.4 |
| 20260507100332 | 65 | 340 | 2.6 | 7.8 | 0.00 | 0.03 | 0.00 | 86 | 1014.4 |
| 20260507095340 | 65 | 357 | 2.6 | 7.8 | 0.00 | 0.03 | 0.00 | 86 | 1014.1 |
| 20260507094327 | 65 | 9 | 1.7 | 8.7 | 0.00 | 0.03 | 0.00 | 86 | 1014.1 |
| 20260507093350 | 65 | 327 | 2.6 | 7.0 | 0.00 | 0.03 | 0.00 | 86 | 1013.9 |
| 20260507092340 | 65 | 340 | 1.7 | 5.2 | 0.00 | 0.03 | 0.00 | 86 | 1014.0 |
| 20260507091326 | 65 | 336 | 1.7 | 8.7 | 0.00 | 0.03 | 0.00 | 85 | 1013.9 |
| 20260507090329 | 65 | 8 | 0.9 | 4.3 | 0.00 | 0.03 | 0.00 | 85 | 1013.7 |
| 20260507085334 | 65 | 11 | 1.7 | 7.0 | 0.00 | 0.03 | 0.00 | 85 | 1013.6 |
| 20260507084338 | 65 | 12 | 1.7 | 7.0 | 0.00 | 0.03 | 0.00 | 85 | 1013.7 |
| 20260507083345 | 65 | 21 | 2.6 | 7.8 | 0.00 | 0.03 | 0.00 | 85 | 1013.7 |
| 20260507082330 | 65 | 10 | 3.5 | 7.8 | 0.00 | 0.03 | 0.00 | 85 | 1013.7 |
| 20260507081359 | 65 | 25 | 2.6 | 7.8 | 0.00 | 0.03 | 0.00 | 85 | 1013.9 |
| 20260507080325 | 65 | 38 | 2.6 | 10.4 | 0.00 | 0.03 | 0.00 | 84 | 1013.8 |
| 20260507075331 | 65 | 350 | 2.6 | 7.8 | 0.00 | 0.03 | 0.00 | 84 | 1013.8 |
| 20260507074337 | 65 | 340 | 1.7 | 12.2 | 0.00 | 0.03 | 0.00 | 83 | 1013.9 |
| 20260507073339 | 65 | 350 | 3.5 | 11.3 | 0.00 | 0.03 | 0.00 | 83 | 1013.9 |
| 20260507072326 | 66 | 356 | 3.5 | 10.4 | 0.00 | 0.03 | 0.00 | 83 | 1013.9 |
| 20260507071332 | 66 | 12 | 3.5 | 10.4 | 0.00 | 0.03 | 0.00 | 83 | 1014.3 |
| 20260507070338 | 66 | 11 | 2.6 | 10.4 | 0.00 | 0.03 | 0.00 | 83 | 1014.2 |
| 20260507065327 | 66 | 24 | 3.5 | 10.4 | 0.00 | 0.03 | 0.00 | 83 | 1014.2 |
| 20260507064332 | 66 | 319 | 3.5 | 14.8 | 0.00 | 0.03 | 0.00 | 83 | 1014.3 |
| 20260507063333 | 66 | 12 | 6.1 | 13.9 | 0.00 | 0.03 | 0.00 | 83 | 1014.4 |
| 20260507062340 | 66 | 2 | 4.3 | 13.0 | 0.00 | 0.03 | 0.00 | 83 | 1014.3 |
| 20260507061326 | 66 | 327 | 2.6 | 12.2 | 0.00 | 0.03 | 0.00 | 83 | 1014.5 |
| 20260507060330 | 66 | 2 | 2.6 | 8.7 | 0.00 | 0.03 | 0.00 | 83 | 1014.2 |
| 20260507055357 | 66 | 304 | 3.5 | 12.2 | 0.00 | 0.03 | 0.00 | 83 | 1014.3 |
| 20260507054402 | 66 | 301 | 3.5 | 9.6 | 0.00 | 0.03 | 0.00 | 83 | 1013.9 |
| 20260507053325 | 67 | 29 | 2.6 | 11.3 | 0.00 | 0.03 | 0.00 | 82 | 1013.7 |
| 20260507052334 | 67 | 2 | 5.2 | 13.0 | 0.00 | 0.03 | 0.00 | 82 | 1013.9 |
| 20260507051343 | 67 | 281 | 5.2 | 11.3 | 0.00 | 0.03 | 0.00 | 82 | 1013.7 |
| 20260507050328 | 67 | 350 | 3.5 | 13.0 | 0.00 | 0.03 | 0.00 | 82 | 1013.8 |
| 20260507045337 | 67 | 309 | 3.5 | 8.7 | 0.00 | 0.03 | 0.03 | 82 | 1014.0 |
| 20260507044342 | 67 | 22 | 3.5 | 12.2 | 0.00 | 0.03 | 0.03 | 82 | 1013.7 |
| 20260507043348 | 67 | 360 | 5.2 | 13.0 | 0.00 | 0.03 | 0.03 | 81 | 1013.8 |
| 20260507042334 | 67 | 345 | 4.3 | 13.0 | 0.00 | 0.03 | 0.03 | 81 | 1013.8 |
| 20260507041324 | 68 | 17 | 3.5 | 12.2 | 0.00 | 0.03 | 0.03 | 81 | 1013.8 |
| 20260507040348 | 68 | 335 | 3.5 | 13.9 | 0.00 | 0.03 | 0.03 | 81 | 1013.5 |
| 20260507035354 | 68 | 354 | 4.3 | 13.9 | 0.00 | 0.03 | 0.03 | 81 | 1013.5 |
| 20260507034342 | 69 | 321 | 4.3 | 8.7 | 0.00 | 0.03 | 0.03 | 81 | 1013.4 |
| 20260507033328 | 69 | 345 | 3.5 | 11.3 | 0.00 | 0.03 | 0.03 | 80 | 1013.4 |
| 20260507032335 | 69 | 345 | 5.2 | 10.4 | 0.00 | 0.03 | 0.03 | 80 | 1013.6 |
| 20260507031344 | 69 | 301 | 4.3 | 10.4 | 0.00 | 0.03 | 0.03 | 80 | 1013.3 |
| 20260507030332 | 70 | 1 | 3.5 | 13.9 | 0.00 | 0.03 | 0.03 | 79 | 1013.0 |
| 20260507025324 | 70 | 340 | 4.3 | 12.2 | 0.00 | 0.03 | 0.03 | 80 | 1012.9 |
| 20260507024332 | 70 | 333 | 5.2 | 11.3 | 0.00 | 0.03 | 0.03 | 80 | 1012.8 |
| 20260507023338 | 70 | 3 | 3.5 | 10.4 | 0.00 | 0.03 | 0.03 | 80 | 1012.4 |
| 20260507022326 | 70 | 335 | 2.6 | 8.7 | 0.00 | 0.03 | 0.03 | 81 | 1012.3 |
| 20260507021334 | 70 | 345 | 5.2 | 11.3 | 0.00 | 0.03 | 0.03 | 81 | 1011.9 |
| 20260507020340 | 70 | 356 | 2.6 | 7.8 | 0.00 | 0.03 | 0.03 | 81 | 1011.7 |
| 20260507015329 | 70 | 335 | 2.6 | 7.8 | 0.00 | 0.03 | 0.03 | 80 | 1011.5 |
| 20260507014402 | 71 | 323 | 2.6 | 7.0 | 0.00 | 0.03 | 0.03 | 80 | 1011.3 |
| 20260507013327 | 71 | 328 | 3.5 | 9.6 | 0.00 | 0.03 | 0.03 | 79 | 1011.3 |
| 20260507012334 | 71 | 292 | 4.3 | 10.4 | 0.00 | 0.03 | 0.03 | 79 | 1011.0 |
| 20260507011339 | 71 | 360 | 3.5 | 11.3 | 0.00 | 0.03 | 0.03 | 79 | 1010.8 |
| 20260507010323 | 72 | 323 | 3.5 | 8.7 | 0.00 | 0.03 | 0.03 | 79 | 1010.8 |
| 20260507005331 | 72 | 316 | 4.3 | 10.4 | 0.00 | 0.03 | 0.03 | 79 | 1010.5 |
| 20260507004337 | 72 | 323 | 5.2 | 12.2 | 0.00 | 0.03 | 0.03 | 79 | 1010.3 |
| 20260507003325 | 72 | 345 | 3.5 | 12.2 | 0.00 | 0.03 | 0.03 | 79 | 1010.3 |
| 20260507002332 | 73 | 318 | 4.3 | 15.6 | 0.00 | 0.03 | 0.03 | 79 | 1010.2 |
| 20260507001339 | 73 | 287 | 5.2 | 11.3 | 0.00 | 0.03 | 0.03 | 79 | 1010.0 |
| 20260507000324 | 73 | 350 | 4.3 | 11.3 | 0.00 | 0.03 | 0.03 | 79 | 1009.9 |
| 20260506235333 | 73 | 333 | 5.2 | 12.2 | 0.00 | 0.03 | 0.03 | 78 | 1009.8 |
| 20260506234359 | 73 | 300 | 4.3 | 13.9 | 0.00 | 0.03 | 0.03 | 78 | 1009.8 |
| 20260506233324 | 74 | 304 | 6.1 | 13.9 | 0.00 | 0.03 | 0.03 | 78 | 1009.5 |
| 20260506232333 | 76 | 289 | 6.1 | 14.8 | 0.00 | 0.03 | 0.03 | 78 | 1009.5 |
| 20260506231340 | 80 | 279 | 7.0 | 13.9 | 0.00 | 0.03 | 0.03 | 74 | 1009.3 |
| 20260506230325 | 84 | 288 | 2.6 | 5.2 | 0.00 | 0.03 | 0.03 | 83 | 1008.7 |
| 20260506225330 | 84 | 330 | 3.5 | 8.7 | 0.00 | 0.03 | 0.03 | 82 | 1008.7 |
| 20260506224336 | 85 | 350 | 1.7 | 4.3 | 0.00 | 0.03 | 0.03 | 83 | 1008.6 |
| 20260506223340 | 85 | 354 | 1.7 | 2.6 | 0.00 | 0.03 | 0.03 | 83 | 1008.7 |
| 20260506222327 | 84 | 11 | 0.9 | 2.6 | 0.00 | 0.03 | 0.03 | 83 | 1008.7 |
| 20260506221337 | 85 | 340 | 0.0 | 0.9 | 0.00 | 0.03 | 0.03 | 83 | 1008.6 |
| 20260506220342 | 85 | 350 | 1.7 | 2.6 | 0.00 | 0.03 | 0.03 | 82 | 1008.6 |
| 20260506215332 | 85 | 340 | 0.0 | 2.6 | 0.00 | 0.03 | 0.03 | 82 | 1008.6 |
| 20260506214341 | 85 | 290 | 0.0 | 0.0 | 0.00 | 0.03 | 0.03 | 80 | 1008.5 |
| 20260506213346 | 84 | 350 | 0.0 | 0.0 | 0.00 | 0.03 | 0.03 | 80 | 1008.4 |
| 20260506212330 | 84 | 350 | 0.0 | 0.0 | 0.00 | 0.03 | 0.03 | 81 | 1008.5 |
| 20260506211337 | 84 | 300 | 0.0 | 0.0 | 0.00 | 0.03 | 0.03 | 82 | 1008.6 |
| 20260506210326 | 84 | 288 | 0.0 | 0.0 | 0.00 | 0.03 | 0.03 | 83 | 1008.7 |
| 20260506205332 | 84 | 156 | 0.0 | 0.0 | 0.00 | 0.03 | 0.03 | 82 | 1008.6 |
| 20260506204338 | 84 | 202 | 0.0 | 0.0 | 0.00 | 0.03 | 0.03 | 82 | 1008.7 |
| 20260506203342 | 84 | 308 | 0.0 | 2.6 | 0.00 | 0.03 | 0.03 | 82 | 1008.9 |
| 20260506202330 | 84 | 200 | 0.9 | 3.5 | 0.00 | 0.03 | 0.03 | 80 | 1008.8 |
| 20260506201338 | 84 | 202 | 0.0 | 1.7 | 0.00 | 0.03 | 0.03 | 81 | 1009.1 |
| 20260506200341 | 83 | 125 | 2.6 | 3.5 | 0.00 | 0.03 | 0.03 | 81 | 1009.2 |